Starlink 2343

operational
NORAD ID: 47884 Int'l Des: 2021-021 Owner: SPXS Country: US Constellation: starlink
LEOCIRCULARSTARLINK_TYPE

About Starlink 2343

Description loading...

Live Position

Loading 3D Globe...

Upcoming Passes

Altitude History

Altitude vs Time

uPlot chart will show altitude changes over time

Two-Line Element Set

1 47884U 21021AA 26061.00002315 .01342132 00000-0 68406-1 0 9994
2 47884 53.0834 316.0423 0002215 80.4935 44.2019 15.13384010 5702
Epoch: Mar 2, 2026 • Age: 40 hours

Current Status

Altitude 518.6 km
Velocity 7.60 km/s
Sub-Earth Point -20.60°S, 116.74°W
Launch Date Mar 14, 2021
Age 4.9 years
Type internet

Technical Details

Classification Payload
Mass 260.00 kg
Dry Mass 248.00 kg
Total Mass 260.00 kg
Length 0.20 m
Diameter 2.80 m
Span 9.00 m
Shape Box + pan
Manufacturer SPXS
Bus Type Starlink
Phase Status In Orbit
Owner/State SPXS/US

Large Constellations

Loading constellations...